Weather in Makarakskiy

Russia / Kemerovo Oblast     55°35′49″N   88°02′49″E
temp.,
°C
wind,
m/s
gust,
m/s
humid.,
%
clouds,
%
prec.,
mm/h
press.,
hPa
HPBL,
m
16 may, sun
sun1601:00+10ssw2694100 4.5 1016178
04:00+11sw3118999 1.3 1015409
07:00+11ssw298793 2.2 1015426
10:00+15sw467881 1.3 1013769
13:00+16sw5872100 1.5 10121088
16:00+12nne379592 5.1 1010361
19:00+11ese1291100 5.8 1012263
22:00+9ne1194100 0.1 101317
17 may, mon
mon1701:00+9ene1195100 0.1 101338
04:00+8ene119779 0.0 101343
07:00+9nne229392 0.0 1013231
10:00+10ne2382100 0.0 1014631
13:00+14n1261100 0.1 10141197
16:00+14n2261100 0.0 1014995
19:00+12n1271100 0.1 101459
22:00+10w1178100 0.0 101410
18 may, tue
tue1801:00+10ssw2482100 0.0 1012116
04:00+11ssw31281100 0.2 1010563
07:00+10ssw41196100 7.6 1007509
10:00+11sw51295100 3.4 1005640
13:00+13sw5119499 5.6 1003799
16:00+14nw499291 2.9 1002682
19:00+14wnw2690100 4.2 1001581
22:00+11nnw3697100 1.1 1003644
19 may, wed
wed1901:00+8nw2498100 1.3 1005531
04:00+6n2598100 0.3 1006570
07:00+5nne3697100 1.0 1007796
10:00+6nne4775100 0.1 1008716
13:00+8n5648100 0.1 10081434
16:00+7n4745100 0.0 10091640
19:00+6n4749100 0.0 10101821
22:00+1nnw22645 0.0 101332
20 may, thu
thu2001:00−1wnw11735 0.0 101410
04:00−1wnw1175100 0.0 101523
07:000nw365986 0.0 1016884
10:00+3nw5637100 0.1 10162373
13:00+5nw4537100 0.1 10162345
16:00+5nw5738100 0.0 10162154
19:00+5nw4847100 0.1 10181986
22:00+1w25645 0.0 1019100